Flag for U.S.A. Weather past 2 weeks in San Francisco, California, U.S.A.

Now
73 °F

Partly cloudy.


Feels Like: 75 °F
Forecast: 65 / 71 °F
Wind: 17 mph from South

Location: San Francisco International Airport

Current Time: Sep 17, 2014 at 9:48:55 PM

Latest Report: Sep 17, 2014 at 8:56 PM


Visibility: 10 mi

Pressure: 29.77 "Hg

Humidity: 71%

Dew point: 63 °F

Location of San FranciscoLocation

Historic Weather in San Francisco — Graph

°F

San Francisco temperature yesterday

Maximum temperature yesterday: 80 °F (at 1:56 PM)
Minimum temperature yesterday: 62 °F (at 5:56 AM)
Average temperature yesterday: 68 °F

Past Weeks' High & Low Weather Summary

 TemperatureHumidityPressure
High82 °F (Sep 10, 2:56 PM)96% (Sep 10, 7:56 AM)30.00 "Hg (Sep 10, 7:56 AM)
Low56 °F (Sep 10, 4:56 AM)41% (Sep 17, 2:56 PM)29.70 "Hg (Sep 3, 4:56 PM)
Average65 °F77%29.86 "Hg
* Reported Sep 2 8:56 PM — Sep 17 8:56 PM, San Francisco, Weather by CustomWeather, © 2014

Note: Actual official high and low records may vary slightly from our data, if they occured in-between our weather recording intervals... More about our weather records

Advertising

San Francisco weather history for previous 24 hours

 ConditionsComfort  
Time TempWeatherWind HumidityBarometerVisibility
8:56 PM
Sep 17
73 °FPartly cloudy.17 mph71%29.77 "Hg10 mi
7:56 PM73 °FScattered clouds.21 mph69%29.75 "Hg10 mi
6:56 PM73 °FScattered clouds.21 mph64%29.74 "Hg10 mi
5:56 PM76 °FScattered clouds.17 mph54%29.75 "Hg10 mi
4:56 PM78 °FPassing clouds.20 mph48%29.75 "Hg10 mi
3:56 PM79 °FPassing clouds.14 mph45%29.77 "Hg10 mi
2:56 PM81 °FPassing clouds.14 mph41%29.77 "Hg10 mi
1:56 PM77 °FPassing clouds.7 mph56%29.78 "Hg10 mi
12:56 PM72 °FPassing clouds.7 mph68%29.80 "Hg10 mi
11:56 AM72 °FPassing clouds.6 mph68%29.81 "Hg10 mi
10:56 AM71 °FPassing clouds.3 mph68%29.82 "Hg10 mi
9:56 AM68 °FPassing clouds.5 mph73%29.82 "Hg10 mi
8:56 AM66 °FScattered clouds.No wind78%29.83 "Hg10 mi
7:56 AM64 °FPartly sunny.3 mph81%29.83 "Hg10 mi
6:56 AM62 °FPassing clouds.6 mph83%29.81 "Hg10 mi
5:56 AM63 °FPassing clouds.7 mph87%29.80 "Hg10 mi
4:56 AM63 °FPassing clouds.9 mph87%29.80 "Hg10 mi
3:56 AM63 °FPassing clouds.8 mph87%29.80 "Hg10 mi
2:56 AM64 °FPassing clouds.8 mph87%29.81 "Hg10 mi
1:56 AM65 °FPassing clouds.7 mph87%29.81 "Hg10 mi
12:56 AM66 °FPassing clouds.8 mph84%29.82 "Hg10 mi
11:56 PM
Sep 16
66 °FPassing clouds.9 mph84%29.83 "Hg10 mi
10:56 PM66 °FPassing clouds.13 mph84%29.83 "Hg10 mi
9:56 PM68 °FPassing clouds.12 mph78%29.84 "Hg10 mi
Weather by CustomWeather, © 2014

See weather overviewHow to use our weather pages